[[{"header":{"parameterUnit":"m.s-1","parameterCategory":1,"la1":30.2991,"la2":30.254,"lo1":-89.0895,"lo2":-89.0444,"dy":0.0017,"dx":0.0017,"nx":28,"ny":28,"refTime":"2025-01-15T03:00:00:Z","depth":0,"parameterNumber":2,"parameterNumberName":"U-component_of_WINDS"},"data":[0,0,0,0,0,0,0,0,0,0,0,0,0,0,0,0,0,0,0,0,0,0,0,0,0,0,0,0,0,0,0,0,0,0,0,0,0,0,0,0,0,0,0,0,0,0,0,0,0,0,0,0,0,0,0,0,0,0,2.788,2.7881,0,2.7959,2.796,2.7961,2.7902,2.7899,2.7897,2.7894,2.7977,2.7982,2.7986,0,0,0,0,0,0,0,0,0,0,0,0,0,2.768,2.7684,2.788,2.7881,2.7882,2.7959,2.796,2.7961,2.7902,2.7899,2.7896,2.7893,2.7976,2.7981,2.7987,0,0,0,0,0,0,0,0,0,0,0,0,0,2.7764,2.7685,2.788,2.7862,2.7861,2.7959,2.796,2.7961,2.7903,2.7899,2.7895,2.7892,2.7974,2.7981,2.7988,2.8108,0,0,2.8009,2.8012,0,0,0,0,0,0,0,0,2.7759,2.7771,2.7863,2.7863,2.7862,2.7917,2.792,2.801,2.7904,2.7887,2.7894,2.789,2.796,2.7968,2.7992,2.8111,2.8115,2.8009,2.8013,2.8016,2.8018,0,0,0,0,0,0,0,2.7753,2.7767,2.7911,2.7865,2.7864,2.785,2.7858,2.7937,2.7945,2.7888,2.7884,2.7894,2.7959,2.7985,2.7993,2.8116,2.8009,2.8015,2.8019,2.8022,2.8339,2.8343,0,0,0,0,0,0,2.7749,2.7763,2.7909,2.7913,2.78,2.7857,2.7866,2.7903,2.7943,2.7946,2.7898,2.7891,2.7975,2.7985,2.7996,2.8139,2.8016,2.8023,2.8027,2.8335,2.834,2.8345,0,0,0,0,0,0,2.7745,2.7762,2.7905,2.7837,2.7854,2.7865,2.7907,2.7907,2.7932,2.795,2.7952,2.7922,2.7972,2.7986,2.808,2.8141,2.8026,2.8032,2.833,2.8337,2.8342,2.8427,0,0,0,0,0,0,2.7739,2.7761,2.7807,2.7839,2.7858,2.7988,2.7911,2.7911,2.7944,2.7937,2.7974,2.7976,2.797,2.807,2.8087,2.8149,2.8038,2.8324,2.8333,2.834,2.8419,2.8436,2.845,0,0,0,0,0,2.7732,2.7828,2.7809,2.7827,2.7915,2.7992,2.8003,2.7994,2.7949,2.7995,2.8007,2.7975,2.8132,2.808,2.8099,2.8164,2.8321,2.8331,2.834,2.8412,2.8432,2.845,0,0,0,0,0,0,2.7803,2.7831,2.7811,2.7919,2.7954,2.7982,2.8039,2.8016,2.8063,2.8055,2.8042,2.8051,2.815,2.8166,2.8108,2.8282,2.8219,2.8233,2.8268,2.8287,2.8303,2.8297,2.8043,0,0,0,0,0,2.7831,2.789,2.7912,2.8006,2.8024,2.8029,2.8062,2.8052,2.8087,2.8101,2.812,2.8156,2.8213,2.8251,2.8305,2.8421,2.8429,2.8475,2.849,2.8503,2.8515,2.8578,2.8599,2.8376,2.8376,2.8376,0,0,2.789,2.7913,2.7951,2.802,2.8046,2.8108,2.8041,2.811,2.8157,2.8112,2.8202,2.8217,2.8256,2.8362,2.841,2.8379,2.8578,2.8515,2.8525,2.853,2.8591,2.8612,2.863,2.8383,2.8382,2.8381,0,0,2.8029,2.8052,2.8132,2.8159,2.8198,2.8201,2.822,2.8252,2.826,2.835,2.8318,2.8373,2.8472,2.8502,2.853,2.8681,2.8653,2.8698,2.878,2.8842,2.8859,2.8875,2.8929,2.8949,2.871,2.8711,2.8711,0,2.8097,2.8189,2.8177,2.8248,2.828,2.8242,2.8324,2.8351,2.8406,2.8429,2.8393,2.8517,2.854,2.8653,2.869,2.8713,2.8736,2.8694,2.8857,2.8873,2.8887,2.8939,2.8959,2.8716,2.8715,2.8715,2.8714,0,2.8272,2.8336,2.8397,2.845,2.8489,2.8566,2.8565,2.8606,2.8593,2.86,2.8692,2.8719,2.8778,2.8804,2.8792,2.8915,2.8895,2.8859,2.8795,2.8914,2.8962,2.8982,2.8723,2.8722,2.872,2.8719,0,0,2.8457,2.8503,2.8525,2.8549,2.859,2.864,2.8715,2.8772,2.8808,2.8847,2.891,2.8995,2.8962,2.8993,2.8984,2.9039,2.9157,2.8996,2.8997,2.9025,2.9296,2.9323,2.9346,2.9139,2.9143,2.9146,2.9292,0,2.8598,2.8728,2.872,2.8843,2.8903,2.8868,2.8933,2.8965,2.8974,2.9027,2.9036,2.9097,2.9048,2.9067,2.9119,2.9132,2.9211,2.9121,2.9199,2.9202,2.919,2.9371,2.94,2.9537,2.9311,2.9314,2.9317,0,2.8781,2.8826,2.8955,2.8987,2.9011,2.907,2.9122,2.9173,2.9209,2.9212,2.9247,2.9229,2.9306,2.9241,2.9346,2.9285,2.9316,2.9328,2.9333,2.934,2.9266,2.9383,2.958,2.9601,2.9346,2.9344,2.9342,0,2.8904,2.8997,2.9086,2.9108,2.9147,2.9189,2.9208,2.924,2.9275,2.9321,2.9343,2.9398,2.9427,2.947,2.9467,2.942,2.9575,2.9509,2.958,2.958,2.9614,2.9612,2.9819,2.9634,2.9634,2.9634,2.9633,0,2.9063,2.9143,2.9142,2.9197,2.9286,2.9276,2.9364,2.9378,2.9408,2.9465,2.9438,2.9493,2.9486,2.9541,2.954,2.9628,2.9642,2.9646,2.9645,2.9649,2.9648,2.9669,2.966,2.9639,2.9638,2.9637,2.9636,0,2.9215,2.9218,2.9313,2.9342,2.9351,2.9416,2.9441,2.9494,2.95,2.9573,2.959,2.96,2.9664,2.9665,2.9738,2.9737,2.9845,2.9833,2.9833,2.9831,2.9901,2.9895,3.0129,3.0159,2.9955,2.9956,2.9958,0,2.9317,2.9378,2.9414,2.945,2.9471,2.953,2.9565,2.9558,2.9596,2.9642,2.9689,2.975,2.9799,2.9902,2.9916,2.9973,2.9962,3.004,2.997,2.9972,2.9963,2.996,2.9966,3.0054,3.0056,3.0058,3.0059,0,2.9497,2.9495,2.9547,2.96,2.9643,2.9684,2.9722,2.9754,2.975,2.9795,2.9859,2.9897,2.9972,3.0033,3.0087,3.0107,3.0083,3.0081,3.0101,3.0105,3.0103,3.0106,2.987,3.0076,3.0074,3.0073,3.0072,3.0072,2.9627,2.968,2.9713,2.9772,2.98,2.9837,2.9887,2.99,2.9953,3.0013,3.0005,3.0078,3.0113,3.0183,3.0208,3.0264,3.0237,3.0265,3.0272,3.0279,3.0287,3.0094,3.0274,3.0274,3.0273,3.0273,3.0272,0,2.9806,2.9826,2.988,2.9934,2.9981,2.9954,2.9995,3.0036,3.0099,3.0134,3.0182,3.0257,3.0316,3.0335,3.0393,3.0435,3.0425,3.045,3.0447,3.0452,3.0308,3.0285,3.0457,3.0457,3.0457,3.0457,3.0457,3.0456,2.9904,2.9992,2.9995,3.0096,3.0116,3.0186,3.0211,3.0245,3.0273,3.0357,3.0406,3.0418,3.0447,3.0506,3.056,3.0564,3.0586,3.0616,3.0616,3.0481,3.0462,3.0444,3.0423,3.0621,3.0621,3.0755,3.0756,3.0757]},{"header":{"parameterUnit":"m.s-1","parameterCategory":1,"la1":30.2991,"la2":30.254,"lo1":-89.0895,"lo2":-89.0444,"dy":0.0017,"dx":0.0017,"nx":28,"ny":28,"refTime":"2025-01-15T03:00:00:Z","depth":0,"parameterNumber":3,"parameterNumberName":"V-component_of_WINDS"},"data":[0,0,0,0,0,0,0,0,0,0,0,0,0,0,0,0,0,0,0,0,0,0,0,0,0,0,0,0,0,0,0,0,0,0,0,0,0,0,0,0,0,0,0,0,0,0,0,0,0,0,0,0,0,0,0,0,0,0,0.7523,0.7523,0,0.7523,0.7523,0.7523,0.7508,0.7507,0.7507,0.7507,0.7507,0.7508,0.7508,0,0,0,0,0,0,0,0,0,0,0,0,0,0.7509,0.751,0.7523,0.7523,0.7523,0.7523,0.7523,0.7523,0.7508,0.7507,0.7507,0.7507,0.7507,0.7508,0.7508,0,0,0,0,0,0,0,0,0,0,0,0,0,0.7513,0.751,0.7523,0.7515,0.7515,0.7523,0.7523,0.7523,0.7508,0.7507,0.7507,0.7506,0.7507,0.7508,0.7508,0.7524,0,0,0.751,0.751,0,0,0,0,0,0,0,0,0.7513,0.7513,0.7516,0.7516,0.7515,0.7515,0.7518,0.7523,0.7508,0.7511,0.7507,0.7506,0.751,0.7511,0.7512,0.7524,0.7524,0.751,0.751,0.7511,0.7511,0,0,0,0,0,0,0,0.7512,0.7513,0.7523,0.7516,0.7516,0.7512,0.7512,0.7519,0.7514,0.751,0.7509,0.7509,0.751,0.7511,0.7512,0.7524,0.751,0.7511,0.7511,0.7511,0.7548,0.7548,0,0,0,0,0,0,0.7513,0.7513,0.7523,0.7523,0.7512,0.7513,0.7512,0.7515,0.7514,0.7513,0.751,0.7509,0.7511,0.7511,0.7512,0.7529,0.7511,0.7511,0.7512,0.7547,0.7548,0.7548,0,0,0,0,0,0,0.7513,0.7514,0.7523,0.7518,0.7518,0.7513,0.7517,0.7516,0.7517,0.7513,0.7512,0.7513,0.751,0.7511,0.7521,0.7529,0.7512,0.7512,0.7546,0.7547,0.7548,0.7565,0,0,0,0,0,0,0.7513,0.7514,0.752,0.7518,0.7519,0.7532,0.7518,0.7516,0.7518,0.7517,0.7516,0.7515,0.751,0.752,0.7521,0.753,0.7513,0.7546,0.7547,0.7548,0.7564,0.7566,0.7569,0,0,0,0,0,0.7512,0.7525,0.7521,0.7522,0.7526,0.7532,0.7533,0.7527,0.7519,0.7525,0.7522,0.7515,0.7528,0.7521,0.7523,0.7531,0.7545,0.7546,0.7548,0.7563,0.7566,0.7569,0,0,0,0,0,0,0.7529,0.7525,0.752,0.7532,0.7533,0.753,0.7537,0.7531,0.7533,0.7532,0.7524,0.7524,0.7535,0.7534,0.7526,0.7546,0.7535,0.7537,0.7546,0.7549,0.7552,0.7552,0.7513,0,0,0,0,0,0.7534,0.754,0.7536,0.7547,0.7548,0.7542,0.7545,0.754,0.754,0.754,0.7538,0.7539,0.7543,0.7546,0.755,0.7563,0.7563,0.757,0.7573,0.7575,0.7576,0.7583,0.7586,0.7553,0.7553,0.7553,0,0,0.7545,0.7543,0.7547,0.7551,0.755,0.7556,0.7543,0.7549,0.7553,0.7541,0.755,0.7549,0.7549,0.756,0.7565,0.756,0.7585,0.7576,0.7578,0.7579,0.7584,0.7588,0.759,0.7554,0.7554,0.7554,0,0,0.7568,0.7567,0.7576,0.7576,0.7576,0.7572,0.7574,0.7572,0.757,0.7579,0.757,0.7575,0.7582,0.7582,0.7583,0.7605,0.7598,0.7606,0.7619,0.7626,0.7628,0.7631,0.7638,0.764,0.7608,0.7608,0.7608,0,0.7581,0.7589,0.7582,0.7589,0.759,0.7579,0.7588,0.7589,0.759,0.7591,0.7585,0.7593,0.7593,0.7604,0.7609,0.761,0.7612,0.7606,0.7628,0.7631,0.7633,0.7639,0.7642,0.7609,0.7609,0.7609,0.7608,0,0.7605,0.7611,0.7619,0.7619,0.7621,0.7629,0.7623,0.7626,0.7621,0.7618,0.7626,0.7625,0.7628,0.763,0.7626,0.764,0.7637,0.763,0.7619,0.7637,0.7643,0.7646,0.761,0.761,0.761,0.7609,0,0,0.7639,0.7635,0.7638,0.7638,0.7636,0.764,0.7647,0.765,0.7652,0.7653,0.7659,0.7665,0.7658,0.7659,0.7654,0.766,0.7676,0.7652,0.7652,0.7656,0.7692,0.7697,0.77,0.7671,0.7672,0.7672,0.7691,0,0.7661,0.7672,0.7666,0.7679,0.7683,0.7673,0.7679,0.7678,0.7675,0.7679,0.7676,0.768,0.7671,0.7671,0.7676,0.7673,0.7683,0.7671,0.7676,0.7676,0.7676,0.7703,0.7709,0.7727,0.7694,0.7694,0.7694,0,0.7687,0.7688,0.7702,0.7698,0.77,0.7706,0.7707,0.771,0.7709,0.7707,0.7708,0.7701,0.7707,0.7697,0.7705,0.7698,0.7699,0.7698,0.7698,0.7698,0.7686,0.7704,0.7733,0.7735,0.7698,0.7698,0.7698,0,0.771,0.7715,0.7723,0.7723,0.772,0.7724,0.7723,0.7721,0.7723,0.7724,0.7724,0.7726,0.7727,0.7729,0.7723,0.7716,0.7732,0.7721,0.773,0.773,0.7734,0.7733,0.7763,0.7735,0.7735,0.7735,0.7735,0,0.7734,0.7743,0.7733,0.7738,0.7747,0.7739,0.7748,0.7746,0.7744,0.7748,0.7739,0.7744,0.7735,0.7739,0.7734,0.7741,0.7742,0.774,0.7738,0.7741,0.7741,0.7741,0.774,0.7736,0.7736,0.7735,0.7735,0,0.7761,0.7755,0.7763,0.7759,0.7758,0.7765,0.7761,0.7765,0.7761,0.7767,0.7767,0.7761,0.7765,0.7759,0.7761,0.7758,0.7768,0.7765,0.7769,0.7767,0.7776,0.7775,0.7807,0.7811,0.7781,0.7781,0.7781,0,0.7777,0.7783,0.7779,0.7781,0.778,0.7783,0.7785,0.7777,0.7779,0.7777,0.7782,0.7784,0.7786,0.7791,0.7787,0.7789,0.7785,0.7796,0.7786,0.7787,0.7785,0.7785,0.7785,0.7799,0.7799,0.7799,0.78,0,0.7805,0.7802,0.7804,0.7805,0.7807,0.7807,0.7807,0.7809,0.7801,0.7803,0.7806,0.7807,0.781,0.7812,0.7813,0.7811,0.7804,0.7803,0.7805,0.7807,0.7808,0.7807,0.7774,0.7802,0.7802,0.7802,0.7802,0.7802,0.7827,0.7831,0.7829,0.7831,0.783,0.783,0.7834,0.783,0.7832,0.7833,0.7829,0.7832,0.783,0.783,0.783,0.7832,0.7827,0.7831,0.7831,0.7832,0.7833,0.7808,0.7833,0.7832,0.7832,0.7832,0.7832,0,0.7854,0.7852,0.7854,0.7854,0.7856,0.7848,0.7848,0.785,0.7853,0.7852,0.7853,0.7856,0.7858,0.7854,0.7855,0.7858,0.7855,0.7859,0.7858,0.7858,0.7838,0.7836,0.7861,0.7861,0.7861,0.7861,0.7861,0.7861,0.7868,0.7875,0.7872,0.7878,0.7876,0.7879,0.7879,0.7879,0.7878,0.7881,0.7883,0.788,0.7877,0.7878,0.7879,0.7878,0.7879,0.7884,0.7881,0.7862,0.7859,0.7857,0.7855,0.7884,0.7884,0.7901,0.7901,0.7901]}]]